Simultaneous Nadir Overpasses (SNOs) Predictions

Prediction of SNOs between LANDSAT-8 and METOP-A Satellite Orbit:

Table of predicted SNOs for the next 14.0 days since TLE Epoch: 9/15/2017
Index Date (LANDSAT-8) Time (LANDSAT-8) Lat,Lon (LANDSAT-8) SZA (LANDSAT-8 ) Date (METOP-A) Time (METOP-A) Lat,Lon (METOP-A) SZA (METOP-A ) Distance(km) Time Diff (sec)
1 09/18/2017 16:53:52 81.24, -31.62 82.01 09/18/2017 16:53:10 81.24, -31.44 82.02 3.02 42
2 09/18/2017 17:43:18 -81.26, 136.33 97.93 09/18/2017 17:43:50 -81.25, 136.23 97.93 1.86 32
3 09/21/2017 12:28:09 81.23, 34.69 83.11 09/21/2017 12:27:31 81.23, 34.51 83.07 3.08 38
4 09/21/2017 13:17:35 -81.25,-157.33 96.83 09/21/2017 13:18:10 -81.25,-157.43 96.83 1.70 35
5 09/24/2017 08:02:25 81.24, 101.34 84.26 09/24/2017 08:01:50 81.24, 101.21 84.22 2.14 35
6 09/24/2017 08:51:51 -81.26, -90.66 95.68 09/24/2017 08:52:29 -81.26, -90.72 95.68 1.29 38
7 09/27/2017 03:36:41 81.23, 167.57 85.34 09/27/2017 03:36:09 81.24, 167.52 85.33 1.00 32




NCC Satellite Simultaneous Nadir Overpasses (SNOs) Prediction Service
